Location: Adamstown South Public School
(32.9318°S, 151.7012°E)
Time: 19:40:34
(UTC+00:00)

AQUARIUS - Visible Passes

Search period start: 26 September 2020 00:00
Search period end: 06 October 2020 00:00
Orbit: 650 x 652 km, 98.0° (Epoch: 26 September)

Date Brightness Start Highest point End Pass type
(mag) Time Alt. Az. Time Alt. Az. Time Alt. Az.
26 Sep 7.3 09:21:25 10° SSW 09:24:11 16° WSW 09:26:55 10° WNW visible
26 Sep 7.0 18:38:45 10° ENE 18:42:10 22° ESE 18:45:37 10° SSE visible
27 Sep 4.2 08:10:14 10° SSE 08:14:49 83° ENE 08:19:19 10° N visible
27 Sep 5.7 19:04:41 10° NE 19:08:56 42° ESE 19:13:14 10° S visible
28 Sep 5.4 08:37:20 10° S 08:41:42 47° WSW 08:46:01 10° NNW visible
29 Sep 6.8 09:04:52 10° SSW 09:08:29 24° WSW 09:12:03 10° WNW visible
29 Sep 7.5 18:24:01 10° E 18:26:29 15° ESE 18:28:57 10° SE visible
30 Sep 7.6 09:33:26 10° SW 09:35:09 12° WSW 09:36:52 10° W visible
30 Sep 6.6 18:49:20 10° NE 18:53:11 28° ESE 18:57:05 10° SSE visible
01 Oct 4.5 08:21:21 10° S 08:25:54 73° WSW 08:30:23 10° NNW visible
02 Oct 6.0 08:48:37 10° S 08:52:44 35° WSW 08:56:49 10° NW visible
03 Oct 7.2 09:16:25 10° SSW 09:19:29 18° WSW 09:22:30 10° WNW visible
03 Oct 7.3 18:34:17 10° ENE 18:37:28 19° ESE 18:40:41 10° SSE visible
04 Oct 6.0 19:00:03 10° NE 19:04:12 37° ESE 19:08:25 10° S visible
05 Oct 5.1 08:32:32 10° S 08:36:58 53° WSW 08:41:21 10° NNW visible
